Wind_Speed
39 37 38 38 36 42 36 35 33 39 37 34 36 36 35 34 31 29 27 26 25 25 25 27 27 27 27 27 28 27 25 27 29 29 30 31 33 38 40 44 51 53 43 41 39 37 35
42 42 41 40 39 36 38 35 33 37 41 36 35 38 38 36 34 32 30 28 26 25 25 25 25 26 27 27 27 27 27 27 29 31 31 32 34 36 37 38 41 52 51 45 43 39 39
40 41 40 37 34 35 36 39 37 33 40 41 38 37 41 39 37 35 33 31 29 28 26 26 25 25 27 26 25 26 27 28 29 30 32 33 33 35 35 37 38 38 47 50 47 45 42
42 42 42 44 43 39 36 40 38 39 38 42 43 41 40 41 41 39 37 36 33 31 29 28 27 26 26 27 25 26 27 28 29 31 33 34 35 36 38 38 38 40 43 45 44 43 44
44 45 45 45 45 46 46 44 41 42 42 42 44 46 44 41 42 42 41 39 37 34 31 30 29 27 27 29 28 27 29 31 31 32 33 36 37 35 38 41 43 42 40 41 44 43 47
49 50 53 54 53 52 50 49 50 46 46 46 47 46 48 47 43 42 43 42 40 37 35 33 30 30 30 29 31 30 30 31 32 33 35 38 39 39 38 38 43 43 47 46 47 48 48
59 61 62 63 63 63 60 58 54 54 52 49 51 51 46 51 49 46 43 41 41 41 39 38 36 33 32 31 33 34 33 32 34 34 38 41 42 42 37 37 41 49 54 53 53 53 52
65 70 72 73 75 74 72 68 63 57 59 55 54 55 53 49 48 50 47 43 42 42 40 40 39 37 36 34 33 36 34 35 38 38 42 44 43 43 44 45 46 48 52 55 54 52 57
71 74 80 83 81 79 73 66 64 59 60 60 58 57 59 56 52 49 47 48 47 44 42 40 41 39 40 40 38 36 40 39 40 42 43 42 42 44 48 48 47 46 48 52 53 52 56
77 86 85 74 67 64 62 57 53 58 60 60 60 56 57 60 59 52 46 46 48 45 44 41 40 41 41 43 43 44 41 41 42 45 48 48 46 46 46 46 46 47 48 52 54 56 57
87 87 72 63 57 52 48 51 45 49 56 58 58 61 47 61 58 52 48 49 44 42 45 42 41 40 40 40 43 42 43 44 45 47 50 49 49 49 52 50 51 52 50 53 55 57 59
89 76 63 58 53 46 40 40 40 42 50 54 53 48 48 48 57 54 54 50 43 41 42 38 37 37 38 41 41 41 44 46 48 51 51 49 50 52 49 48 50 49 50 51 53 55 63
79 63 61 52 40 29 19 24 27 34 44 52 59 49 45 43 43 49 53 50 46 44 38 37 37 39 40 39 38 38 43 47 49 51 51 51 49 50 50 49 50 49 46 48 51 56 65
68 60 55 36 7 12 14 15 20 25 38 48 58 50 46 36 38 44 51 50 48 42 38 38 36 36 35 33 33 40 42 43 46 49 50 50 49 46 43 44 42 43 40 43 47 53 57
63 59 49 3 10 14 9 4 13 11 33 49 58 49 45 39 37 39 46 49 44 39 37 35 35 35 30 30 34 34 35 36 34 31 30 30 26 21 28 34 39 37 38 33 40 46 49
60 55 25 10 9 9 3 8 11 14 43 58 58 46 42 43 37 38 43 46 43 39 35 32 33 31 27 29 25 17 17 16 13 12 16 15 18 21 24 26 30 31 33 32 34 35 39
59 53 23 18 12 1 9 5 5 28 53 67 46 48 39 40 43 40 45 42 40 36 32 32 29 27 27 21 12 12 12 11 11 14 13 16 20 18 25 25 27 34 38 42 40 38 35
57 51 30 26 24 15 12 12 17 37 48 54 49 50 40 42 36 36 43 41 38 34 33 28 25 27 19 13 14 13 14 17 20 21 20 21 24 22 21 27 27 33 34 33 37 38 37
57 49 31 21 21 18 16 11 29 51 44 47 48 19 32 41 29 31 32 30 31 31 28 25 26 21 15 13 20 15 17 19 22 24 18 21 24 27 19 19 21 38 32 36 33 34 38
56 47 27 11 9 6 15 12 41 49 45 51 44 24 40 35 33 29 23 27 28 26 26 26 21 15 15 17 22 20 15 16 19 19 18 24 24 24 25 25 16 8 19 26 28 35 33
55 43 22 10 14 20 13 20 42 50 48 45 32 19 31 37 32 27 28 30 26 26 27 23 15 13 17 17 23 22 16 11 14 13 11 16 21 26 18 9 12 9 3 11 18 19 29
53 38 16 9 14 16 23 27 31 37 36 32 25 29 34 31 29 25 25 22 23 28 24 17 15 17 15 15 22 22 14 5 6 7 11 14 23 19 11 8 6 5 5 20 27 27 26
51 33 12 18 19 24 27 31 37 34 36 34 31 34 28 24 28 29 22 21 23 21 18 17 20 16 14 18 16 13 10 6 5 14 9 12 16 15 5 1 4 16 22 18 24 27 12
48 27 18 27 24 28 35 42 37 38 40 23 29 28 24 25 26 24 23 23 20 17 18 20 22 16 14 17 15 14 11 7 4 6 8 12 13 9 10 8 7 4 8 8 10 8 11
43 20 31 33 32 32 34 33 29 32 24 31 28 29 28 21 20 24 19 23 20 20 19 20 12 14 16 16 18 17 15 7 2 7 8 9 14 10 10 12 11 10 16 17 21 21 21
39 14 35 36 32 34 34 32 29 27 32 29 21 29 27 26 18 29 23 22 21 21 19 17 18 16 13 19 23 19 16 7 5 7 7 6 5 7 7 11 9 10 11 13 16 18 19
38 13 35 39 36 35 33 23 31 39 33 30 24 23 21 27 24 28 24 20 19 19 18 19 18 17 17 21 22 21 20 13 12 10 8 6 6 7 5 4 7 3 2 4 4 11 13
45 14 35 43 41 38 30 24 28 32 32 21 19 23 19 24 26 26 21 20 18 18 18 19 20 17 18 20 18 19 23 21 18 17 11 6 5 5 3 3 2 3 4 3 3 2 1
46 15 33 43 46 44 33 30 27 32 35 24 19 21 22 27 23 23 25 20 20 18 17 14 16 16 17 19 17 16 16 19 23 22 19 14 10 8 6 4 3 4 7 9 8 7 8
Wind_Direction
300 302 305 305 305 276 270 271 269 254 255 256 249 245 242 241 237 235 238 241 242 242 239 239 243 246 250 254 256 258 261 264 267 268 264 260 259 256 254 253 249 250 249 247 248 250 253
302 304 306 303 302 297 273 270 271 260 251 253 253 246 243 241 240 237 235 237 241 242 242 242 244 246 250 251 259 264 263 263 267 269 271 267 261 263 260 259 257 248 246 247 247 250 255
310 308 306 303 297 291 287 270 268 266 254 249 251 250 246 243 240 239 238 237 240 243 244 246 247 249 252 256 261 264 266 267 269 271 273 269 265 262 261 256 255 251 249 247 249 253 256
307 303 301 299 297 291 284 274 269 261 262 251 247 250 248 245 243 242 240 241 240 242 244 246 250 253 258 258 262 267 270 271 270 268 269 272 269 265 260 256 253 250 245 243 247 250 253
306 304 302 299 294 290 285 277 268 265 252 256 248 245 248 247 245 244 243 243 244 244 244 246 251 256 260 261 264 269 274 274 272 271 270 271 272 268 265 258 254 253 253 250 249 248 247
311 307 304 300 296 291 286 280 271 259 253 247 250 246 243 245 245 244 244 243 244 246 246 248 251 256 259 266 268 271 273 276 277 276 274 271 271 272 268 263 260 256 252 248 245 245 247
316 314 311 307 303 298 289 280 273 262 253 244 241 245 242 241 243 244 243 243 244 245 245 249 252 256 262 267 272 273 274 279 278 277 275 272 273 275 269 267 263 254 250 250 250 251 249
317 315 311 307 301 294 288 281 272 261 250 241 237 236 241 239 240 240 242 244 243 246 247 248 252 257 260 263 268 272 275 277 280 280 280 278 277 271 268 266 264 261 256 253 253 254 255
318 315 311 306 298 292 285 274 267 255 246 239 231 229 234 237 238 239 239 240 243 246 248 249 252 256 261 262 265 269 276 280 279 279 279 276 275 270 267 267 266 262 258 257 255 251 251
322 320 316 305 295 286 278 274 259 250 238 234 226 220 231 232 236 235 237 240 242 244 247 248 252 254 257 261 266 270 274 277 279 282 280 279 277 272 267 263 263 260 259 257 254 253 251
328 326 316 308 301 290 280 269 258 241 235 227 217 212 225 230 231 230 229 234 238 241 247 247 249 255 260 262 264 268 274 278 281 280 279 278 272 267 265 264 260 259 255 255 254 252 251
333 326 317 312 305 294 281 270 259 235 228 218 208 208 213 229 228 224 226 230 233 236 242 247 252 255 258 261 266 272 278 281 282 282 281 279 274 271 266 261 260 259 257 254 252 251 251
333 325 322 319 311 302 292 281 267 234 221 206 187 195 201 228 234 225 224 225 227 231 238 244 250 254 257 263 271 277 280 283 285 285 283 281 274 269 261 256 252 252 252 253 250 248 252
332 329 330 324 14 42 351 336 300 230 210 199 183 190 193 220 225 226 219 221 224 227 231 239 248 254 261 267 276 281 287 290 288 286 284 279 272 270 258 251 251 248 246 245 253 253 256
334 335 334 138 85 40 85 67 295 247 195 186 176 182 194 211 211 220 217 218 218 223 229 235 245 254 263 272 279 289 296 295 292 286 282 282 283 265 257 256 250 247 246 258 255 252 253
336 337 338 161 112 42 70 24 347 196 176 169 171 170 195 201 218 219 219 213 214 219 227 235 245 254 261 273 285 302 317 316 306 310 300 296 286 271 259 251 245 244 243 240 242 246 247
338 337 326 211 183 44 226 242 131 190 177 171 169 189 194 205 210 215 212 206 209 213 222 232 242 252 264 278 262 281 299 306 318 319 311 288 279 275 265 269 264 251 248 246 240 239 241
339 337 330 228 239 225 214 200 196 184 170 160 167 191 190 199 194 215 206 203 205 210 222 231 239 251 267 264 241 253 286 293 317 316 288 295 284 279 278 264 257 255 247 239 238 235 235
339 337 324 255 262 254 230 184 181 171 176 172 167 146 178 190 203 206 204 207 202 211 222 224 237 256 267 252 237 259 272 288 302 315 310 301 291 298 302 270 267 250 246 243 239 229 219
340 337 323 288 248 208 170 174 181 177 170 173 169 174 184 190 208 200 197 200 208 217 217 224 239 253 273 249 242 256 273 282 297 312 298 291 295 311 313 309 281 285 245 239 231 223 200
342 338 321 283 183 167 176 172 181 166 173 164 178 185 186 198 200 188 194 201 205 214 218 230 237 248 268 257 249 251 280 300 299 293 312 313 335 348 23 343 275 252 25 207 220 189 195
343 340 309 214 169 161 162 161 171 176 171 175 202 193 193 186 195 182 197 194 209 214 219 226 227 249 257 254 248 254 268 273 282 336 336 354 11 44 11 351 347 13 202 184 176 182 182
343 340 259 196 178 168 168 165 166 169 186 185 192 192 194 187 192 205 220 212 216 218 222 230 224 247 253 240 239 237 236 228 327 352 19 61 67 78 29 186 190 153 146 157 170 166 175
342 338 217 194 190 175 169 173 174 178 183 185 184 179 186 190 190 201 210 214 214 223 229 226 227 237 251 230 222 217 214 203 318 6 62 72 93 128 102 75 211 242 241 229 219 214 182
343 337 196 192 186 185 183 175 175 176 185 187 195 191 187 188 195 206 208 207 213 221 234 232 214 247 253 232 224 220 202 235 93 73 74 79 72 77 68 77 97 74 80 90 105 122 135
343 328 203 201 197 188 181 182 190 199 186 188 191 193 209 207 206 197 201 206 210 227 236 235 236 258 256 230 222 219 226 207 171 146 116 121 108 85 86 95 87 92 99 119 131 136 143
344 317 206 205 203 195 185 189 184 180 187 177 189 193 211 204 207 198 210 211 213 227 232 226 250 242 256 223 222 220 225 197 195 186 145 143 116 104 84 78 100 79 64 123 141 147 150
346 308 210 209 207 202 191 192 188 177 182 185 188 213 215 205 193 206 212 215 219 228 230 229 256 256 251 211 216 210 216 208 200 204 221 214 186 177 139 166 153 192 195 237 237 247 209
348 308 211 211 207 199 194 195 192 188 191 190 196 209 207 185 200 204 211 214 220 229 216 251 253 250 217 199 191 188 192 206 212 218 219 210 217 229 224 230 223 200 215 221 226 231 235
Height
5690 5687 5684 5681 5678 5677 5676 5676 5675 5676 5678 5679 5681 5683 5686 5688 5690 5692 5696 5699 5702 5704 5705 5708 5711 5714 5717 5720 5722 5724 5725 5725 5726 5727 5729 5728 5730 5730 5732 5733 5735 5735 5743 5744 5747 5749 5751
5682 5679 5677 5673 5670 5669 5668 5667 5667 5666 5669 5671 5672 5675 5678 5680 5683 5685 5688 5692 5695 5697 5699 5702 5704 5707 5711 5713 5716 5718 5717 5718 5719 5720 5721 5721 5721 5722 5724 5726 5725 5728 5732 5736 5738 5742 5743
5674 5671 5668 5665 5662 5659 5657 5658 5658 5658 5659 5661 5664 5666 5669 5672 5674 5677 5681 5684 5687 5690 5693 5695 5698 5700 5703 5706 5707 5709 5710 5712 5713 5713 5713 5713 5713 5714 5716 5717 5717 5719 5722 5727 5730 5733 5734
5665 5661 5658 5654 5651 5650 5648 5647 5648 5649 5649 5651 5654 5656 5659 5662 5666 5669 5672 5676 5679 5682 5685 5688 5691 5693 5694 5698 5699 5700 5702 5703 5705 5705 5706 5706 5705 5705 5707 5710 5710 5711 5713 5717 5722 5723 5725
5655 5651 5646 5643 5640 5637 5635 5634 5635 5636 5638 5640 5643 5645 5649 5653 5656 5659 5663 5666 5671 5674 5677 5680 5684 5686 5687 5690 5692 5692 5694 5696 5697 5697 5698 5698 5699 5699 5699 5700 5702 5704 5708 5709 5711 5713 5713
5645 5639 5633 5628 5624 5622 5620 5618 5619 5620 5623 5627 5630 5633 5637 5641 5646 5649 5653 5657 5662 5666 5670 5672 5676 5679 5681 5683 5684 5684 5686 5687 5688 5689 5689 5689 5690 5690 5690 5692 5694 5696 5696 5697 5697 5700 5701
5628 5620 5614 5608 5604 5599 5597 5598 5599 5601 5605 5611 5616 5620 5624 5628 5634 5638 5643 5648 5654 5657 5661 5664 5668 5670 5672 5674 5675 5677 5678 5678 5680 5680 5679 5680 5680 5681 5683 5682 5681 5680 5681 5684 5688 5689 5691
5613 5603 5593 5586 5578 5573 5570 5569 5572 5577 5582 5589 5597 5605 5610 5616 5621 5627 5633 5639 5641 5647 5652 5654 5657 5661 5664 5666 5668 5669 5670 5670 5671 5672 5669 5670 5671 5673 5672 5670 5669 5669 5670 5672 5676 5677 5678
5598 5588 5575 5564 5550 5538 5536 5540 5542 5548 5556 5566 5576 5587 5594 5601 5608 5614 5623 5627 5631 5637 5641 5646 5649 5652 5653 5658 5661 5660 5660 5660 5661 5661 5660 5660 5663 5661 5660 5659 5658 5659 5659 5659 5662 5662 5664
5583 5566 5548 5531 5520 5512 5509 5506 5514 5520 5529 5541 5555 5569 5577 5584 5593 5604 5613 5615 5620 5628 5630 5638 5640 5644 5646 5648 5650 5650 5650 5652 5652 5651 5646 5648 5651 5648 5647 5647 5645 5646 5647 5645 5646 5647 5652
5560 5540 5519 5505 5495 5488 5486 5482 5489 5497 5504 5520 5535 5551 5564 5569 5582 5594 5601 5603 5612 5619 5619 5628 5632 5634 5637 5640 5640 5640 5641 5641 5641 5638 5635 5637 5636 5633 5633 5636 5629 5633 5631 5630 5630 5633 5637
5537 5516 5500 5488 5476 5469 5466 5465 5470 5478 5487 5502 5521 5536 5550 5556 5565 5578 5584 5594 5604 5610 5611 5618 5623 5627 5629 5630 5630 5631 5632 5630 5627 5622 5621 5622 5621 5619 5621 5620 5616 5617 5617 5617 5617 5620 5619
5517 5501 5486 5472 5461 5456 5454 5454 5457 5463 5473 5487 5509 5527 5538 5548 5558 5567 5575 5585 5594 5598 5607 5613 5616 5618 5620 5622 5624 5623 5621 5618 5614 5609 5607 5604 5605 5604 5603 5603 5602 5604 5607 5605 5605 5604 5603
5504 5490 5475 5463 5457 5454 5454 5454 5452 5453 5463 5478 5496 5515 5531 5540 5549 5555 5564 5576 5584 5593 5601 5605 5608 5610 5613 5615 5616 5613 5610 5606 5602 5596 5591 5588 5589 5588 5592 5591 5591 5592 5596 5594 5591 5594 5596
5495 5481 5468 5462 5458 5455 5450 5449 5448 5449 5458 5472 5490 5509 5523 5533 5541 5547 5557 5566 5578 5588 5595 5599 5601 5602 5606 5608 5607 5604 5601 5595 5589 5584 5581 5576 5575 5574 5575 5576 5578 5581 5582 5591 5583 5584 5584
5488 5475 5464 5461 5456 5453 5450 5451 5450 5447 5455 5470 5487 5503 5514 5526 5537 5544 5551 5561 5572 5582 5589 5592 5594 5597 5601 5601 5600 5597 5593 5590 5585 5580 5577 5577 5572 5570 5569 5569 5569 5571 5576 5575 5574 5575 5578
5483 5469 5461 5457 5453 5450 5449 5449 5447 5449 5455 5468 5484 5501 5511 5522 5531 5537 5544 5557 5568 5577 5581 5585 5589 5592 5594 5594 5593 5592 5590 5589 5585 5583 5580 5572 5568 5568 5564 5563 5565 5566 5565 5567 5568 5570 5574
5478 5465 5456 5453 5450 5449 5448 5444 5446 5451 5459 5473 5486 5498 5510 5519 5527 5533 5542 5552 5563 5570 5575 5579 5584 5585 5587 5587 5588 5587 5586 5584 5583 5581 5574 5569 5565 5562 5561 5560 5558 5556 5555 5556 5558 5566 5569
5474 5462 5452 5448 5447 5449 5451 5452 5450 5454 5462 5475 5486 5496 5505 5517 5524 5531 5542 5551 5559 5565 5570 5575 5578 5580 5581 5582 5583 5584 5583 5581 5578 5576 5572 5568 5562 5558 5555 5553 5551 5546 5549 5550 5554 5557 5562
5471 5458 5448 5443 5443 5446 5451 5455 5456 5460 5469 5477 5489 5496 5506 5516 5523 5534 5543 5549 5556 5562 5567 5570 5573 5574 5577 5578 5579 5580 5580 5577 5575 5574 5570 5564 5559 5554 5549 5547 5546 5543 5542 5544 5548 5550 5562
5469 5457 5448 5444 5443 5447 5452 5457 5461 5469 5478 5487 5494 5499 5511 5515 5524 5533 5539 5546 5552 5559 5562 5565 5568 5571 5572 5574 5575 5577 5577 5576 5574 5571 5567 5560 5556 5551 5547 5546 5543 5543 5541 5542 5546 5554 5558
5469 5458 5452 5449 5449 5450 5454 5459 5467 5474 5481 5488 5496 5505 5513 5522 5530 5533 5539 5545 5551 5554 5558 5561 5565 5568 5570 5571 5572 5573 5575 5574 5572 5569 5566 5562 5556 5553 5552 5550 5548 5546 5546 5547 5550 5557 5564
5469 5459 5456 5456 5456 5458 5460 5465 5470 5477 5485 5493 5498 5506 5513 5520 5526 5532 5539 5544 5548 5552 5556 5559 5563 5563 5567 5567 5569 5570 5571 5572 5571 5568 5567 5562 5559 5559 5558 5556 5555 5556 5557 5560 5563 5565 5570
5467 5459 5457 5460 5461 5463 5468 5471 5476 5481 5488 5494 5500 5507 5514 5520 5526 5533 5536 5541 5546 5549 5553 5556 5559 5561 5564 5565 5568 5569 5570 5571 5572 5570 5569 5566 5564 5564 5563 5562 5563 5564 5563 5562 5565 5569 5572
5464 5459 5458 5461 5465 5468 5471 5476 5481 5485 5491 5497 5503 5508 5514 5520 5525 5529 5535 5540 5544 5547 5551 5554 5556 5558 5559 5563 5565 5568 5571 5572 5573 5572 5571 5571 5570 5570 5569 5569 5568 5567 5567 5569 5572 5575 5578
5460 5457 5457 5460 5465 5470 5474 5479 5482 5486 5492 5500 5504 5508 5514 5519 5525 5528 5534 5539 5543 5546 5549 5551 5554 5555 5557 5560 5562 5566 5568 5571 5573 5576 5574 5575 5575 5576 5575 5575 5573 5573 5574 5576 5580 5583 5587
5457 5452 5453 5458 5463 5468 5474 5478 5482 5488 5493 5499 5504 5509 5514 5519 5522 5528 5533 5537 5542 5545 5547 5548 5550 5552 5553 5556 5559 5563 5565 5571 5572 5573 5576 5576 5576 5577 5578 5578 5579 5578 5576 5579 5582 5590 5591
5452 5448 5450 5453 5460 5466 5472 5478 5483 5488 5493 5498 5504 5508 5513 5517 5522 5528 5532 5537 5540 5542 5543 5546 5547 5548 5549 5553 5557 5561 5564 5568 5571 5573 5574 5576 5577 5578 5579 5579 5581 5582 5583 5583 5585 5585 5588
5445 5442 5444 5449 5457 5464 5471 5477 5482 5488 5494 5499 5503 5507 5512 5517 5524 5527 5530 5535 5537 5539 5541 5543 5543 5543 5545 5550 5556 5559 5562 5564 5567 5570 5573 5575 5578 5578 5580 5581 5581 5582 5582 5584 5586 5587 5589